Overview Statistics Trail Chart Weather Telemetry Raw packets
 

This is the latest recevied weather packets stored in our database for station/object VE8SKI. If no packets are shown the sender has not sent any weather packets the latest 10 day(s).

<< 23 24 25 26 27 28 29 >>
Time Temp. Humidity Pressure Rain* Wind** Luminosity Snow
1777943890 3.89° C 72% 1024 hPa 0 mm 0 m/s - -
1777943590 3.89° C 73% 1024 hPa 0 mm 0 m/s - -
1777943291 3.89° C 72% 1024 hPa 0 mm 0 m/s - -
1777942991 3.89° C 68% 1024 hPa 0 mm 0 m/s - -
1777942692 3.89° C 68% 1023.9 hPa 0 mm 0 m/s - -
1777942389 4.44° C 67% 1023.9 hPa 0 mm 0 m/s - -
1777942090 4.44° C 66% 1023.9 hPa 0 mm 0 m/s - -
1777941790 4.44° C 65% 1024 hPa 0 mm 0 m/s - -
1777941491 4.44° C 65% 1023.9 hPa 0 mm 0.89 m/s, 318° - -
1777941191 4.44° C 66% 1023.9 hPa 0 mm 0.89 m/s, 277° - -
1777940892 4.44° C 66% 1023.8 hPa 0 mm 1.34 m/s, 273° - -
1777940589 4.44° C 66% 1023.8 hPa 0 mm 1.79 m/s, 248° - -
1777940290 4.44° C 66% 1023.9 hPa 0 mm 1.34 m/s, 208° - -
1777939990 4.44° C 67% 1023.9 hPa 0 mm 0.89 m/s, 287° - -
1777939690 4.44° C 66% 1023.8 hPa 0 mm 2.24 m/s, 291° - -
1777939391 4.44° C 66% 1023.8 hPa 0 mm 0.45 m/s, 314° - -
1777939091 3.89° C 68% 1023.8 hPa 0 mm 0.45 m/s, 177° - -
1777938789 3.89° C 66% 1023.8 hPa 0 mm 2.24 m/s, 270° - -
1777938489 4.44° C 66% 1023.8 hPa 0 mm 1.34 m/s, 308° - -
1777938190 3.89° C 67% 1023.6 hPa 0 mm 1.79 m/s, 298° - -
1777937890 4.44° C 69% 1023.6 hPa 0 mm 0.89 m/s, 108° - -
1777937591 3.89° C 71% 1023.6 hPa 0 mm 1.79 m/s, 179° - -
1777937291 4.44° C 69% 1023.6 hPa 0 mm 1.79 m/s, 173° - -
1777936989 5.56° C 65% 1023.6 hPa 0 mm 0 m/s - -
1777936689 5° C 66% 1023.8 hPa 0 mm 0.89 m/s, 195° - -

* Rain latest hour (hover to see other rain measurements)
** Current wind speed in m/s (hover to see current wind gust speed)